Weather History for KGEG - January, 2012

Change the Weather History Date:

Monday, January 16, 2012

  Actual Average Record
Temperature  
Mean Temperature 18 °F 30 °F  
Max Temperature 26 °F 34 °F 51 °F (2011)
Min Temperature 9 °F 25 °F -30 °F (1888)
Degree Days  
Heating Degree Days 47 35  
Month to date heating degree days 561 584  
Since 1 July heating degree days 3232 3418  
Cooling Degree Days 0 0  
Month to date cooling degree days 0 0  
Year to date cooling degree days 0 0  
Moisture  
Dew Point 14 °F    
Average Humidity 77    
Maximum Humidity 91    
Minimum Humidity 63    
Precipitation  
Precipitation T in 0.06 in 0.66 in (1908)
Month to date precipitation 0.14 1.01  
Year to date precipitation 0.14 1.01  
Snow  
Snow T in 0.40 in 5.60 in (1982)
Month to date snowfall 0.3 7.1  
Since 1 July snowfall 9.3 29.2  
Snow Depth 0.00 in    
Sea Level Pressure  
Sea Level Pressure 30.03 in    
Wind  
Wind Speed 11 mph (SSW)    
Max Wind Speed 22 mph    
Max Gust Speed 30 mph    
Visibility 10 miles    
Events Snow    
T = Trace of Precipitation, MM = Missing Value Source: NWS Daily Summary

Daily Weather History Graph

Daily Weather History Graph

Search for Another Location

Airport or City:

Trip Planner

Search our weather history database for the weather conditions in past years. The results will help you decide how hot, cold, wet, or windy it might be!

Date:

Astronomy

Jan. 16, 2012 Rise Set
Actual Time 7:33 AM PST 4:26 PM PST
Civil Twilight 6:58 AM PST 5:01 PM PST
Nautical Twilight 6:20 AM PST 5:39 PM PST
Astronomical Twilight 5:43 AM PST 6:16 PM PST
Moon 12:39 AM PST (1/16) 10:49 AM PST (1/16)
Length of Visible Light 10h 02m
Length of Day
8h 53m
Last Quarter, 45% of the Moon is Illuminated
Jan 16
Last Quarter
Jan 22
New
Jan 30
First Quarter
Feb 7
Full
Feb 14
Last Quarter

Hourly Weather History & Observations

Time (PST) Temp. Windchill Dew Point Humidity Pressure Visibility Wind Dir Wind Speed Gust Speed Precip Events Conditions
12:53 AM 19.0 °F 12.3 °F 17.1 °F 92% 29.97 in 10.0 mi SSE 4.6 mph - N/A   Scattered Clouds
1:53 AM 19.0 °F - 16.0 °F 88% 29.97 in 10.0 mi Calm Calm - N/A   Scattered Clouds
2:53 AM 16.0 °F - 12.9 °F 88% 29.99 in 10.0 mi Calm Calm - N/A   Partly Cloudy
3:53 AM 14.0 °F - 10.0 °F 84% 29.99 in 10.0 mi Calm Calm - N/A   Partly Cloudy
4:53 AM 12.0 °F - 8.1 °F 84% 30.01 in 10.0 mi Calm Calm - N/A   Scattered Clouds
5:53 AM 14.0 °F 6.5 °F 10.9 °F 88% 30.01 in 10.0 mi South 4.6 mph - N/A   Scattered Clouds
6:53 AM 10.9 °F 4.7 °F 7.0 °F 84% 30.03 in 10.0 mi WSW 3.5 mph - N/A   Scattered Clouds
7:53 AM 10.0 °F - 6.1 °F 84% 30.05 in 10.0 mi Calm Calm - N/A   Partly Cloudy
8:53 AM 14.0 °F 3.9 °F 10.0 °F 84% 30.06 in 10.0 mi SSW 6.9 mph - N/A   Scattered Clouds
9:53 AM 19.0 °F 6.8 °F 15.1 °F 85% 30.07 in 10.0 mi SW 11.5 mph - N/A   Mostly Cloudy
10:53 AM 21.0 °F 8.1 °F 15.1 °F 78% 30.09 in 10.0 mi SW 13.8 mph - N/A   Mostly Cloudy
11:53 AM 23.0 °F 9.2 °F 16.0 °F 74% 30.08 in 10.0 mi South 17.3 mph 23.0 mph N/A   Mostly Cloudy
12:53 PM 23.0 °F 9.2 °F 15.8 °F 74% 29.98 in 10.0 mi SW 17.3 mph - N/A   Mostly Cloudy
1:53 PM 26.1 °F 13.6 °F 15.1 °F 63% 30.05 in 10.0 mi SSW 16.1 mph - N/A   Overcast
2:53 PM 25.0 °F 13.1 °F 17.1 °F 72% 30.07 in 10.0 mi SSW 13.8 mph - N/A   Overcast
3:53 PM 25.0 °F 12.2 °F 16.0 °F 69% 30.07 in 7.0 mi SSW 16.1 mph 24.2 mph 0.00 in   Overcast
4:53 PM 25.0 °F 12.6 °F 15.1 °F 66% 30.08 in 10.0 mi SSW 15.0 mph - N/A   Overcast
5:53 PM 25.0 °F 13.6 °F 17.1 °F 72% 30.06 in 7.0 mi South 12.7 mph - 0.00 in Snow Light Snow
6:53 PM 25.0 °F 11.7 °F 17.1 °F 72% 30.05 in 10.0 mi SSW 17.3 mph 21.9 mph 0.00 in   Mostly Cloudy
7:53 PM 25.0 °F 13.1 °F 16.0 °F 69% 30.04 in 10.0 mi SSW 13.8 mph 21.9 mph N/A   Mostly Cloudy
8:53 PM 25.0 °F 10.9 °F 16.0 °F 69% 30.02 in 10.0 mi SSW 19.6 mph 27.6 mph N/A   Mostly Cloudy
9:53 PM 26.1 °F 12.7 °F 16.0 °F 66% 30.01 in 10.0 mi SSW 18.4 mph 24.2 mph N/A   Mostly Cloudy
10:53 PM 26.1 °F 13.1 °F 17.1 °F 69% 29.99 in 10.0 mi SSW 17.3 mph 27.6 mph N/A   Mostly Cloudy
11:53 PM 25.0 °F 11.3 °F 16.0 °F 69% 29.97 in 10.0 mi SSW 18.4 mph - N/A   Mostly Cloudy